Topeka, KS

2:50 AM CST on December 10, 2019 (GMT -0600)
Billard Municipal

Weather History for KTOP - November, 2019

Change the Weather History Date:

Saturday, November 16, 2019

  Actual Average Record
Temperature  
Mean Temperature 46 °F 44 °F  
Max Temperature 61 °F 54 °F 80 °F (2016)
Min Temperature 31 °F 33 °F 8 °F (1959)
Degree Days  
Heating Degree Days 19 21  
Month to date heating degree days 393 283  
Since 1 July heating degree days 804 639  
Cooling Degree Days 0 0  
Month to date cooling degree days 0 0  
Year to date cooling degree days 1609 1420  
Moisture  
Dew Point 27 °F    
Average Humidity 52    
Maximum Humidity 75    
Minimum Humidity 29    
Precipitation  
Precipitation 0.00 in 0.05 in 3.52 in (1928)
Month to date precipitation 0.02 1.10  
Year to date precipitation 45.32 34.36  
Snow  
Snow 0.00 in 0.10 in 2.90 in (1972)
Month to date snowfall 0.3 0.3  
Year to date snowfall 20.3 11.9  
Since 1 July snowfall 1.8 0.6  
Snow Depth 0.00 in    
Sea Level Pressure  
Sea Level Pressure 30.13 in    
Wind  
Wind Speed 8 mph (ESE)    
Max Wind Speed 20 mph    
Max Gust Speed 26 mph    
Visibility 10 miles    
Events      
T = Trace of Precipitation, MM = Missing Value Source: NWS Daily Summary

Daily Weather History Graph

Daily Weather History Graph

Search for Another Location

Airport or City:

Astronomy

Nov. 16, 2019 Rise Set
Actual Time 7:06 AM CST 5:07 PM CST
Civil Twilight 6:37 AM CST 5:36 PM CST
Nautical Twilight 6:05 AM CST 6:08 PM CST
Astronomical Twilight 5:33 AM CST 6:40 PM CST
Moon 8:42 PM CST (11/16) 11:00 AM CST (11/16)
Length of Visible Light 10h 58m
Length of Day
10h 01m
Waning Gibbous, 82% of the Moon is Illuminated
Nov 16
Waning Gibbous
Nov 19
Last Quarter
Nov 26
New
Dec 4
First Quarter
Dec 11
Full

Hourly Weather History & Observations

Time (CST) Temp. Windchill Dew Point Humidity Pressure Visibility Wind Dir Wind Speed Gust Speed Precip Events Conditions
12:53 AM 35.1 °F 31.0 °F 26.1 °F 70% 30.26 in 10.0 mi East 4.6 mph - N/A   Clear
1:53 AM 34.0 °F 31.0 °F 26.1 °F 73% 30.25 in 10.0 mi East 3.5 mph - N/A   Clear
2:53 AM 33.1 °F 28.7 °F 25.0 °F 72% 30.24 in 10.0 mi East 4.6 mph - N/A   Clear
3:53 AM 33.1 °F 26.9 °F 25.0 °F 72% 30.23 in 10.0 mi East 6.9 mph - N/A   Clear
4:53 AM 33.1 °F - 25.0 °F 72% 30.23 in 10.0 mi Calm Calm - N/A   Clear
5:53 AM 33.1 °F 28.7 °F 24.1 °F 70% 30.23 in 10.0 mi ESE 4.6 mph - N/A   Clear
6:53 AM 34.0 °F 31.0 °F 24.1 °F 67% 30.25 in 10.0 mi East 3.5 mph - N/A   Clear
7:53 AM 36.0 °F 31.1 °F 26.1 °F 67% 30.23 in 10.0 mi ESE 5.8 mph - N/A   Clear
8:53 AM 42.1 °F 37.7 °F 28.9 °F 60% 30.22 in 10.0 mi ESE 6.9 mph - N/A   Clear
9:53 AM 50.0 °F - 28.0 °F 43% 30.19 in 10.0 mi South 10.4 mph - N/A   Clear
10:53 AM 53.1 °F - 27.0 °F 37% 30.17 in 10.0 mi South 15.0 mph 24.2 mph N/A   Clear
11:53 AM 57.0 °F - 27.0 °F 32% 30.13 in 10.0 mi South 16.1 mph 24.2 mph N/A   Clear
1:53 PM 61.0 °F - 28.9 °F 30% 30.05 in 10.0 mi SSE 13.8 mph - N/A   Clear
2:53 PM 61.0 °F - 28.9 °F 30% 30.03 in 10.0 mi SE 16.1 mph - N/A   Clear
4:53 PM 55.9 °F - 28.0 °F 34% 30.01 in 10.0 mi SE 11.5 mph - N/A   Clear
5:53 PM 52.0 °F - 28.0 °F 40% 30.01 in 10.0 mi SE 9.2 mph - N/A   Clear
6:53 PM 51.1 °F - 28.0 °F 41% 30.03 in 10.0 mi SE 8.1 mph - N/A   Clear
7:53 PM 46.9 °F - 28.0 °F 48% 30.04 in 10.0 mi ESE 4.6 mph - N/A   Clear
8:53 PM 46.0 °F 43.9 °F 28.9 °F 51% 30.05 in 10.0 mi ENE 4.6 mph - N/A   Clear
9:53 PM 42.1 °F 40.2 °F 28.9 °F 60% 30.05 in 10.0 mi NE 3.5 mph - N/A   Clear
10:53 PM 41.0 °F 38.0 °F 30.0 °F 65% 30.04 in 10.0 mi East 4.6 mph - N/A   Clear
11:53 PM 44.1 °F 40.8 °F 30.0 °F 58% 30.03 in 10.0 mi East 5.8 mph - N/A   Clear